Regional Weather Roundup
Issued by NWS Portland, ME

Home | Current Version | Previous Version | Text Only | Print | Product List | Glossary On
Versions: 1 2 3 4 5 6 7 8 9 10 11 12 13 14 15 16 17 18 19 20 21 22 23 24 25 26 27 28 29 30 31 32 33 34 35 36 37 38 39 40 41 42 43 44 45 46 47 48 49 50
000
ASUS41 KGYX 011410
RWRGYX
WEATHER ROUNDUP FOR MAINE AND NEW HAMPSHIRE
NATIONAL WEATHER SERVICE GRAY ME
1000 AM EDT WED OCT 01 2014

MEZ002-005-006-010-012-015-018-020-021-024-026-027-029-011500-
MAINE

CITY           SKY/WX    TMP DP  RH WIND       PRES   REMARKS
PORTLAND       CLOUDY    56  53  90 NE9       30.13R
SANFORD        CLOUDY    55  50  82 NE9       30.13R
BAR HARBOR     CLOUDY    57  54  88 NE8       30.15R
WISCASSET      CLOUDY    57  52  83 VRB3      30.15R
ROCKLAND       CLOUDY    55  52  88 NE8G17    30.12S
FRYEBURG       LGT RAIN  56  52  86 NE6       30.16R
LEWISTONAUBURN CLOUDY    55  50  82 NE9G16    30.15R
AUGUSTA        CLOUDY    54  50  86 N12       30.16R
WATERVILLE     CLOUDY    55  46  71 NE9       30.12R
BANGOR         CLOUDY    55  49  80 N10       30.18R
GREENVILLE       N/A     53  49  86 NE6       30.16R
MILLINOCKET    CLOUDY    54  47  77 N5        30.20R
HOULTON        CLOUDY    52  47  83 N7        30.19R
PRESQUE ISLE   CLOUDY    46  41  81 NE9       30.22R
FRENCHVILLE    PTSUNNY   41  37  86 E6        30.22S
CARIBOU        CLOUDY    46  41  82 N6        30.22R
$$

NHZ002-005-008-009-011-012-014-011500-
NEW HAMPSHIRE

CITY           SKY/WX    TMP DP  RH WIND       PRES   REMARKS
PORTSMOUTH     CLOUDY    56  54  92 N10       30.10R
ROCHESTER      LGT RAIN  56  53  90 N7        30.11R FOG
NASHUA         LGT RAIN  57  55  94 N5        30.11R FOG
MANCHESTER     LGT RAIN  57  53  86 N9        30.09R
CONCORD        LGT RAIN  57  54  89 N5        30.11R FOG
LACONIA        CLOUDY    57  52  82 NE9       30.12R
PLYMOUTH       CLOUDY    59  56  91 CALM      30.12S
BERLIN         CLOUDY    56  53  90 CALM      30.16R
WHITEFIELD     CLOUDY    57  52  83 NE3       30.14R
JAFFREY        LGT RAIN  55  54  96 N7        30.12R FOG
LEBANON        CLOUDY    61  53  75 N5        30.12R
MT WASHINGTON  CLOUDY    45  41  87 E13         N/A
$$

VTZ005-007-008-011500-
VERMONT

CITY           SKY/WX    TMP DP  RH WIND       PRES   REMARKS
ST JOHNSBURY     N/A     59  53  80 MISG      30.13R
MONTPELIER     CLOUDY    57  54  89 NE5       30.18R
BURLINGTON     CLOUDY    56  52  86 N5        30.15S FOG
$$

MAZ007-012-024-CTZ003-RIZ002-NYZ038-NYZ072-011500-
SOUTHERN NEW ENGLAND AND NY

CITY           SKY/WX    TMP DP  RH WIND       PRES   REMARKS
BOSTON         LGT RAIN  57  56  96 N16       30.07R FOG
WORCESTER      FOG       54  54 100 NE9       30.09R VSB 1/4
NANTUCKET      CLOUDY    63  61  93 NE17      29.97R FOG
PROVIDENCE     DRIZZLE   59  57  93 N14       30.05R
HARTFORD       LGT RAIN  60  56  86 N8        30.07R
ALBANY         LGT RAIN  62  57  83 N5        30.10R
NEW YORK CITY  CLOUDY    63  58  83 NE10G21   30.04R
$$

ANZ081-ANZ082-ANZ150-NHZ014-MEZ023>029-011500-
COASTAL MARINE OBSERVATIONS

STATION/POSITION TIME  TEMP    WIND        PRES    WAVE
                       AIR SEA DIR/SP/G            HT/PER
                 (UTC) (F)     (DEG/KT/KT) (MB)    (FT/S)
MATINICUS ROCK   1300           40/ 16/ 17 1019.1R
PORTLAND WX BUOY 1350   56 58   30/ 14/ 17 1019.6R   2/13
WELLS            1300   56 57   20/  8/ 10 1018.6R
ISLE OF SHOALS   1300   56      30/ 23/ 25 1017.9R
JEFFREYS LEDGE   1321      57                N/A     5/ 6
CASHES LEDGE BUO 1350   56 58              1017.9R   4/ 5
$$

.............KEY..............
   WCI - WIND CHILL
   TC  - TEMPERATURE IN CELSIUS
   VSB - VISIBILITY IN MILES
   HX  - HEAT INDEX
   FAIR- INDICATES FEW OR NO CLOUDS BELOW 12,000 FT, WITH NO
         SIGNIFICANT WEATHER AND/OR OBSTRUCTIONS TO VISIBILITY.





USA.gov is the U.S. government's official web portal to all federal, state and local government web resources and services.